Stations météo

réclame
Mon MeteoGroup
Krångede, Suède (2247): Température de l'air & dewpoint: 19.02.2018 06:00:00 - 25.02.2018 06:00:00 (CET)Krångede, Suède (2247): Vitesse du vent & gusts: 19.02.2018 06:00:00 - 25.02.2018 06:00:00 (CET)Krångede, Suède (2247): Direction du vent: 19.02.2018 06:00:00 - 25.02.2018 06:00:00 (CET)Krångede, Suède (2247): reduced air pressure: 19.02.2018 06:00:00 - 25.02.2018 06:00:00 (CET)Krångede, Suède (2247): visibility: 19.02.2018 06:00:00 - 25.02.2018 06:00:00 (CET)Krångede, Suède (2247): Quantités de précipitations: 19.02.2018 06:00:00 - 25.02.2018 06:00:00 (CET)
Date & Time tt [°C] td [°C] ff [km/h] ff [knt] fx [km/h] fx [knt] dd ppp [hPa] vv [km] rr [mm]
25.02.2018 06:00:00 -25,7 -28,0 0 0 4 2 N 1047,7 22 0,2
25.02.2018 05:00:00 -24,6 -26,8 0 0 2 1 N 1047,4 50 0,0
25.02.2018 04:00:00 -23,9 -26,0 0 0 3 2 N 1046,9 45 0,0
25.02.2018 03:00:00 -24,2 -26,3 0 0 3 2 N 1046,8 50 0,0
25.02.2018 02:00:00 -24,0 -26,1 0 0 2 1 N 1046,3 36 0,0
25.02.2018 01:00:00 -23,4 -25,4 0 0 3 2 N 1046,4 31 0,0
25.02.2018 00:00:00 -21,9 -23,6 0 0 2 1 N 1046,1 16 0,0
24.02.2018 23:00:00 -20,7 -22,4 0 0 3 1 N 1045,7 24 0,0
24.02.2018 22:00:00 -20,4 -21,9 0 0 5 3 N 1045,3 33 0,0
24.02.2018 21:00:00 -18,3 -19,8 3 2 7 4 ENE 1044,8 44 0,0
24.02.2018 20:00:00 -14,4 -17,1 4 2 13 7 E 1044,1 17 0,0
24.02.2018 19:00:00 -12,4 -15,0 5 3 13 7 ENE 1043,5 38 0,0
24.02.2018 18:00:00 -12,0 -14,4 4 2 14 7 NE 1042,6 13 0,0
24.02.2018 17:00:00 -10,5 -12,7 5 3 13 7 ENE 1041,7 4,3 0,1
24.02.2018 16:00:00 -9,5 -11,3 7 4 16 9 ESE 1041,2 3,4 0,2
24.02.2018 15:00:00 -9,5 -11,4 9 5 16 9 E 1040,8 2,7 0,2
24.02.2018 14:00:00 -9,6 -11,4 7 4 18 10 E 1040,5 2,7 0,2
24.02.2018 13:00:00 -9,9 -11,7 8 4 19 11 E 1040,5 1,6 0,4
24.02.2018 12:00:00 -10,2 -11,9 9 5 18 10 E 1040,0 2,4 0,2
24.02.2018 11:00:00 -11,0 -12,6 11 6 19 10 ENE 1040,1 1,2 0,6
24.02.2018 10:00:00 -11,4 -13,1 10 6 18 10 ENE 1039,9 1,2 0,4
24.02.2018 09:00:00 -11,7 -13,6 10 6 18 10 ENE 1039,8 1,9 0,1
24.02.2018 08:00:00 -11,9 -13,8 9 5 18 10 ENE 1039,6 3,4 0,2
24.02.2018 07:00:00 -11,8 -13,7 10 5 18 10 E 1039,5 2,2 0,2
24.02.2018 06:00:00 -11,5 -13,2 9 5 16 8 ENE 1039,4 2,0 0,2
24.02.2018 05:00:00 -11,3 -13,0 8 5 13 7 ENE 1038,9 3,3 0,2
24.02.2018 04:00:00 -11,1 -12,8 8 4 12 6 ENE 1038,9 8 0,1
24.02.2018 03:00:00 -11,4 -13,0 6 3 10 5 ENE 1038,9 7 0,1
24.02.2018 02:00:00 -11,2 -13,1 4 2 8 4 E 1038,9 2,8 0,2
24.02.2018 01:00:00 -11,1 -13,4 3 2 9 5 E 1038,9 4,6 0,1
24.02.2018 00:00:00 -11,3 -13,3 3 2 9 5 ESE 1038,5 5 0,1
23.02.2018 23:00:00 -11,0 -13,3 4 2 10 6 SE 1038,2 9 0,1
23.02.2018 22:00:00 -10,6 -12,6 5 3 10 5 S 1037,7 3,0 0,1
23.02.2018 21:00:00 -10,2 -12,2 6 4 11 6 SSE 1037,1 3,2 0,1
23.02.2018 20:00:00 -10,2 -12,4 6 3 14 8 ESE 1036,7 12 0,0
23.02.2018 19:00:00 -10,1 -12,3 8 5 14 8 SE 1036,2 7 0,0
23.02.2018 18:00:00 -9,7 -12,2 6 3 10 5 ESE 1035,8 14 0,0
23.02.2018 17:00:00 -9,4 -12,4 5 3 10 6 ENE 1035,2 44 0,0
23.02.2018 16:00:00 -9,1 -12,4 5 3 13 7 E 1034,7 29 0,0
23.02.2018 15:00:00 -9,1 -12,5 8 4 15 8 ESE 1034,1 23 0,0
23.02.2018 14:00:00 -8,9 -12,7 6 3 14 7 E 1033,8 25 0,0
23.02.2018 13:00:00 -9,2 -12,5 5 3 11 6 E 1033,6 10 0,0
23.02.2018 12:00:00 -9,5 -12,8 5 3 9 5 E 1033,6 8 0,0
23.02.2018 11:00:00 -10,1 -13,5 5 3 10 6 E 1033,1 8 0,0
23.02.2018 10:00:00 -10,4 -14,1 7 4 11 6 NE 1032,5 49 0,0
23.02.2018 09:00:00 -10,6 -14,2 4 2 11 6 ENE 1031,9 50 0,0
23.02.2018 08:00:00 -10,7 -13,9 4 2 8 5 ENE 1031,3 50 0,0
23.02.2018 07:00:00 -10,4 -13,8 5 3 14 8 NE 1030,7 50 0,0
23.02.2018 06:00:00 -10,1 -13,5 6 3 10 5 NE 1030,0 50 0,0
23.02.2018 05:00:00 -9,9 -13,2 6 3 12 6 E 1029,1 50 0,0
23.02.2018 04:00:00 -9,1 -12,1 6 3 11 6 NNE 1028,9 50 0,0
23.02.2018 03:00:00 -8,7 -10,9 5 3 9 5 E 1028,3 2,6 0,1
23.02.2018 02:00:00 -8,3 -10,7 3 1 6 3 NNE 1028,1 21 0,0
23.02.2018 01:00:00 -8,2 -9,7 4 2 10 5 E 1027,6 19 0,0
23.02.2018 00:00:00 -8,1 -9,4 0 0 4 2 N 1027,3 9 0,0
22.02.2018 23:00:00 -8,1 -9,6 0 0 4 2 N 1027,4 18 0,0
22.02.2018 22:00:00 -8,2 -9,7 0 0 4 2 N 1027,4 22 0,0
22.02.2018 21:00:00 -8,2 -9,8 0 0 3 1 N 1027,4 28 0,0
22.02.2018 20:00:00 -8,4 -9,6 0 0 3 2 N 1027,4 26 0,0
22.02.2018 19:00:00 -8,8 -10,3 0 0 3 1 N 1027,1 29 0,0
22.02.2018 18:00:00 -9,7 -11,3 0 0 3 2 N 1027,1 39 0,0
22.02.2018 17:00:00 -8,9 -10,7 0 0 4 2 N 1027,2 39 0,0
22.02.2018 16:00:00 -7,6 -10,3 0 0 6 3 N 1027,1 47 0,0
22.02.2018 15:00:00 -7,0 -10,0 0 0 7 4 N 1027,2 40 0,0
22.02.2018 14:00:00 -7,3 -10,3 3 2 6 3 E 1027,8 37 0,0
22.02.2018 13:00:00 -7,7 -10,5 0 0 6 3 N 1028,2 26 0,0
22.02.2018 12:00:00 -8,6 -10,8 0 0 5 3 N 1028,3 19 0,0
22.02.2018 11:00:00 -9,6 -11,5 0 0 4 2 N 1028,5 19 0,0
22.02.2018 10:00:00 -10,5 -12,1 0 0 6 3 N 1028,8 11 0,0
22.02.2018 09:00:00 -11,3 -12,6 4 2 5 3 SE 1028,9 10 0,0
22.02.2018 08:00:00 -11,7 -12,9 0 0 2 1 N 1028,7 32 0,0
22.02.2018 07:00:00 -11,6 -12,9 0 0 3 1 N 1028,9 22 0,0
22.02.2018 06:00:00 -12,0 -13,4 0 0 3 2 N 1028,8 7 0,0
22.02.2018 05:00:00 -12,1 -13,5 0 0 4 2 N 1028,6 10 0,0
22.02.2018 04:00:00 -11,1 -12,6 0 0 3 2 N 1028,9 7 0,1
22.02.2018 03:00:00 -11,0 -12,2 0 0 3 1 N 1028,9 3,9 0,0
22.02.2018 02:00:00 -13,6 -14,8 0 0 4 2 N 1028,9 7 0,0
22.02.2018 01:00:00 -10,8 -12,0 0 0 3 1 N 1028,8 3,5 0,0
22.02.2018 00:00:00 -10,8 -12,4 0 0 4 2 N 1029,0 3,0 0,1
21.02.2018 23:00:00 -9,5 -11,0 0 0 11 6 N 1028,5 3,8 0,0
21.02.2018 22:00:00 -9,1 -10,7 6 3 13 7 ENE 1028,2 4,0 0,0
21.02.2018 21:00:00 -9,1 -10,7 8 5 14 7 ENE 1028,1 7 0,0
21.02.2018 20:00:00 -8,9 -10,7 8 4 12 6 E 1027,9 3,3 0,0
21.02.2018 19:00:00 -8,8 -10,7 6 4 12 6 NE 1027,5 17 0,0
21.02.2018 18:00:00 -8,7 -10,8 8 4 13 7 ENE 1027,2 10 0,0
21.02.2018 17:00:00 -9,3 -10,9 4 2 8 4 E 1027,0 4,3 0,0
21.02.2018 16:00:00 -10,2 -12,2 0 0 5 3 N 1027,2 4,1 0,0
21.02.2018 15:00:00 -10,5 -12,8 0 0 3 2 N 1027,4 3,6 0,0
21.02.2018 14:00:00 -11,9 -14,1 0 0 5 3 N 1027,7 2,7 0,0
21.02.2018 13:00:00 -11,2 -14,1 0 0 5 3 N 1028,1 3,4 0,0
21.02.2018 12:00:00 -12,5 -14,4 2 1 4 2 S 1028,5 2,0 0,0
21.02.2018 11:00:00 -15,5 -17,0 0 0 4 2 N 1028,8 1,9 0,0
21.02.2018 10:00:00 -17,0 -19,2 0 0 4 2 N 1028,8 11 0,0
21.02.2018 09:00:00 -18,1 -20,0 0 0 2 1 N 1028,7 4,9 0,0
21.02.2018 08:00:00 -20,2 -22,2 0 0 3 2 N 1028,7 1,4 0,0
21.02.2018 07:00:00 -18,6 -20,5 0 0 5 3 N 1028,5 1,1 0,0
21.02.2018 06:00:00 -18,8 -20,5 0 0 2 1 N 1028,3 23 0,0
21.02.2018 05:00:00 -17,9 -19,3 0 0 2 1 N 1028,3 20 0,0
21.02.2018 04:00:00 -15,8 -16,8 0 0 2 1 N 1028,4 10 0,0
21.02.2018 03:00:00 -14,2 -15,9 0 0 3 1 N 1028,6 4,3 0,0
21.02.2018 02:00:00 -13,6 -15,0 0 0 5 3 N 1028,6 4,0 0,0
21.02.2018 01:00:00 -11,7 -12,7 2 1 7 4 ESE 1028,6 3,3 0,0
21.02.2018 00:00:00 -11,0 -12,5 0 0 4 2 N 1028,6 3,3 0,1
20.02.2018 23:00:00 -10,3 -11,8 0 0 10 5 N 1028,7 3,4 0,1
20.02.2018 22:00:00 -9,1 -10,7 5 3 12 7 E 1028,5 3,2 0,0
20.02.2018 21:00:00 -8,9 -10,4 6 3 10 5 ENE 1028,4 6 0,0
20.02.2018 20:00:00 -8,6 -10,1 4 2 10 5 ENE 1028,5 3,4 0,0
20.02.2018 19:00:00 -8,5 -10,0 4 2 8 4 ENE 1028,6 3,3 0,1
20.02.2018 18:00:00 -8,5 -10,3 4 2 9 5 NE 1028,5 6 0,0
20.02.2018 17:00:00 -8,1 -10,3 5 3 12 7 ENE 1028,2 7 0,0
20.02.2018 16:00:00 -8,0 -10,2 7 4 15 8 E 1028,3 4,4 0,0
20.02.2018 15:00:00 -8,2 -10,3 7 4 13 7 E 1028,6 4,1 0,0
20.02.2018 14:00:00 -8,7 -10,5 7 4 13 7 ENE 1028,8 3,5 0,0
20.02.2018 13:00:00 -9,4 -10,7 0 0 8 5 N 1029,2 1,6 0,0
20.02.2018 12:00:00 -10,4 -11,6 0 0 3 2 N 1029,4 3,3 0,0
20.02.2018 11:00:00 -11,4 -12,7 0 0 3 2 N 1029,6 3,9 0,0
20.02.2018 10:00:00 -12,7 -14,1 2 1 4 2 NW 1029,8 6 0,0
20.02.2018 09:00:00 -13,6 -15,0 0 0 4 2 N 1030,0 3,9 0,0
20.02.2018 08:00:00 -15,0 -16,5 0 0 2 1 N 1030,1 6 0,0
20.02.2018 07:00:00 -16,3 -18,0 0 0 2 1 N 1030,3 9 0,0
20.02.2018 06:00:00 -16,7 -18,4 0 0 2 1 N 1030,2 18 0,0
20.02.2018 05:00:00 -15,8 -17,1 0 0 3 2 N 1030,3 19 0,0
20.02.2018 04:00:00 -14,5 -16,2 0 0 3 2 N 1030,6 9 0,0
20.02.2018 03:00:00 -13,2 -14,6 0 0 4 2 N 1030,8 17 0,0
20.02.2018 02:00:00 -13,0 -14,6 2 1 4 2 NW 1031,2 17 0,0
20.02.2018 01:00:00 -11,3 -12,6 0 0 3 2 N 1031,2 7 0,1
20.02.2018 00:00:00 -11,3 -12,5 0 0 1 1 N 1031,3 9 0,0
19.02.2018 23:00:00 -11,6 -12,8 0 0 3 2 N 1031,3 9 0,0
19.02.2018 22:00:00 -10,2 -11,2 2 1 3 2 ESE 1031,2 6 0,0
19.02.2018 21:00:00 -10,8 -12,0 0 0 3 2 N 1031,3 11 0,0
19.02.2018 20:00:00 -10,3 -11,2 0 0 3 1 N 1031,2 18 0,0
19.02.2018 19:00:00 -12,0 -13,2 0 0 5 3 N 1030,9 31 0,0
19.02.2018 18:00:00 -10,2 -12,2 2 1 7 4 NNE 1030,7 43 0,0
19.02.2018 17:00:00 -5,5 -8,2 4 2 8 4 ESE 1030,7 9 0,0
19.02.2018 16:00:00 -5,7 -9,1 0 0 3 2 N 1030,3 30 0,0
19.02.2018 15:00:00 -8,9 -11,3 0 0 3 1 N 1030,0 49 0,0
19.02.2018 14:00:00 -6,2 -10,4 2 1 5 3 NNW 1029,7 43 0,0
19.02.2018 13:00:00 -5,3 -9,0 3 2 8 4 NE 1029,8 39 0,0
19.02.2018 12:00:00 -4,8 -8,9 4 2 10 5 SE 1029,7 27 0,0
19.02.2018 11:00:00 -4,8 -8,7 3 2 7 4 SE 1029,4 22 0,0
19.02.2018 10:00:00 -5,4 -8,5 3 2 8 4 ESE 1028,9 24 0,0
19.02.2018 09:00:00 -5,9 -7,9 5 3 9 5 E 1028,6 22 0,0
19.02.2018 08:00:00 -6,0 -7,8 5 3 14 7 ENE 1027,9 17 0,0
19.02.2018 07:00:00 -5,9 -7,7 3 2 11 6 ENE 1027,3 22 0,0
19.02.2018 06:00:00 -5,5 -7,3 5 3 11 6 ENE 1026,9 15 0,0

tt = Température de l'air
td = dewpoint
ff = Vitesse du vent
fx = gusts
dd = Direction du vent
ppp = reduced air pressure
vv = visibility
rr = Quantités de précipitations

stations d'obs. à proximité